Torna al catalogo

FENGYUN 1C DEB

AttivoPO
NORAD 29871·DEBRIS·🇨🇳 China

Lanciato May 10, 1999 da Taiyuan Satellite Launch Center

Loading…

Prossimi Passaggi (prossime 24 ore)

TLE

AggiornatoSource: Space-Track

Epoca: Sep 14, 2026, 09:37 UTC

1 29871U 99025FR  26257.40123175  .00002027  00000-0  59395-3 0  9992
2 29871  99.0000 230.7197 0057342  11.0532 145.1076 14.44146644 26784

Traccia FENGYUN 1C DEB in tempo reale con AllMySat

Download on the App Store